| time (UTC) | temp F | wind direction | speed MPH | gust MPH | rain 1hr in | rain 24hr in | rain mn in | humidity % | barometer mb |
| 20260505224004 | 85 | 158 | 9.0 | 20.0 | 0.00 | 0.00 | 0.00 | 44 | 1017.1 |
| 20260505223003 | 85 | 162 | 8.0 | 17.0 | 0.00 | 0.00 | 0.00 | 42 | 1017.2 |
| 20260505220004 | 87 | 143 | 3.0 | 16.0 | 0.00 | 0.00 | 0.00 | 33 | 1017.2 |
| 20260505215004 | 89 | 207 | 4.0 | 16.0 | 0.00 | 0.00 | 0.00 | 32 | 1017.6 |
| 20260505213004 | 89 | 214 | 7.0 | 14.0 | 0.00 | 0.00 | 0.00 | 31 | 1017.8 |
| 20260505212004 | 88 | 148 | 3.0 | 13.0 | 0.00 | 0.00 | 0.00 | 32 | 1017.8 |
| 20260505211004 | 89 | 163 | 5.0 | 16.0 | 0.00 | 0.00 | 0.00 | 31 | 1017.9 |
| 20260505210003 | 89 | 202 | 4.0 | 12.0 | 0.00 | 0.00 | 0.00 | 31 | 1017.8 |
| 20260505205003 | 90 | 250 | 0.0 | 13.0 | 0.00 | 0.00 | 0.00 | 30 | 1018.3 |
| 20260505204005 | 88 | 167 | 7.0 | 18.0 | 0.00 | 0.00 | 0.00 | 31 | 1018.3 |
| 20260505203003 | 89 | 246 | 5.0 | 9.0 | 0.00 | 0.00 | 0.00 | 30 | 1018.4 |
| 20260505202004 | 89 | 207 | 5.0 | 13.0 | 0.00 | 0.00 | 0.00 | 29 | 1018.4 |
| 20260505201003 | 88 | 171 | 4.0 | 10.0 | 0.00 | 0.00 | 0.00 | 30 | 1018.5 |
| 20260505200004 | 89 | 218 | 5.0 | 24.0 | 0.00 | 0.00 | 0.00 | 29 | 1018.7 |
| 20260505195004 | 88 | 254 | 3.0 | 10.0 | 0.00 | 0.00 | 0.00 | 30 | 1018.9 |
| 20260505194003 | 88 | 212 | 5.0 | 15.0 | 0.00 | 0.00 | 0.00 | 30 | 1019.0 |
| 20260505193003 | 88 | 192 | 5.0 | 10.0 | 0.00 | 0.00 | 0.00 | 29 | 1019.2 |
| 20260505191004 | 86 | 131 | 4.0 | 13.0 | 0.00 | 0.00 | 0.00 | 30 | 1019.6 |
| 20260505190004 | 85 | 164 | 4.0 | 12.0 | 0.00 | 0.00 | 0.00 | 30 | 1019.6 |
| 20260505185005 | 85 | 174 | 6.0 | 12.0 | 0.00 | 0.00 | 0.00 | 30 | 1019.7 |
| 20260505184004 | 86 | 216 | 4.0 | 14.0 | 0.00 | 0.00 | 0.00 | 30 | 1019.7 |
| 20260505183003 | 85 | 188 | 8.0 | 13.0 | 0.00 | 0.00 | 0.00 | 31 | 1019.8 |
| 20260505181003 | 83 | 150 | 3.0 | 16.0 | 0.00 | 0.00 | 0.00 | 38 | 1020.2 |
| 20260505180004 | 83 | 144 | 3.0 | 14.0 | 0.00 | 0.00 | 0.00 | 39 | 1020.3 |
| 20260505175004 | 83 | 164 | 3.0 | 14.0 | 0.00 | 0.00 | 0.00 | 35 | 1020.2 |
| 20260505174004 | 82 | 167 | 6.0 | 15.0 | 0.00 | 0.00 | 0.00 | 39 | 1020.2 |
| 20260505172005 | 82 | 155 | 7.0 | 13.0 | 0.00 | 0.00 | 0.00 | 37 | 1020.5 |
| 20260505171004 | 81 | 161 | 6.0 | 13.0 | 0.00 | 0.00 | 0.00 | 39 | 1020.5 |
| 20260505170004 | 82 | 20 | 2.0 | 10.0 | 0.00 | 0.00 | 0.00 | 38 | 1020.5 |
| 20260505164003 | 81 | 118 | 9.0 | 12.0 | 0.00 | 0.00 | 0.00 | 38 | 1020.5 |
| 20260505163004 | 81 | 145 | 2.0 | 9.0 | 0.00 | 0.00 | 0.00 | 40 | 1020.8 |
| 20260505162004 | 81 | 174 | 2.0 | 7.0 | 0.00 | 0.00 | 0.00 | 40 | 1020.7 |
| 20260505161004 | 80 | 165 | 5.0 | 6.0 | 0.00 | 0.00 | 0.00 | 42 | 1020.6 |
| 20260505153003 | 76 | 86 | 2.0 | 3.0 | 0.00 | 0.00 | 0.00 | 47 | 1020.9 |
| 20260505152003 | 72 | 279 | 1.0 | 3.0 | 0.00 | 0.00 | 0.00 | 51 | 1021.0 |
| 20260505151004 | 73 | 104 | 0.0 | 3.0 | 0.00 | 0.00 | 0.00 | 50 | 1021.1 |
| 20260505125004 | 59 | 243 | 0.0 | 2.0 | 0.00 | 0.00 | 0.00 | 68 | 1020.3 |
| 20260505124003 | 59 | 135 | 1.0 | 3.0 | 0.00 | 0.00 | 0.00 | 69 | 1020.1 |
| 20260505123004 | 59 | 138 | 1.0 | 3.0 | 0.00 | 0.00 | 0.00 | 68 | 1020.2 |
| 20260505122004 | 59 | 109 | 2.0 | 5.0 | 0.00 | 0.00 | 0.00 | 68 | 1020.1 |
| 20260505121004 | 59 | 102 | 2.0 | 3.0 | 0.00 | 0.00 | 0.00 | 68 | 1020.1 |
| 20260505120005 | 58 | 65 | 0.0 | 3.0 | 0.00 | 0.00 | 0.00 | 69 | 1020.1 |
| 20260505115004 | 59 | 122 | 2.0 | 3.0 | 0.00 | 0.00 | 0.00 | 72 | 1020.0 |
| 20260505114003 | 59 | 178 | 2.0 | 3.0 | 0.00 | 0.00 | 0.00 | 71 | 1020.1 |
| 20260505113004 | 60 | 161 | 1.0 | 3.0 | 0.00 | 0.00 | 0.00 | 67 | 1019.8 |
| 20260505112004 | 60 | 120 | 1.0 | 5.0 | 0.00 | 0.00 | 0.00 | 67 | 1019.7 |
| 20260505111004 | 60 | 70 | 0.0 | 2.0 | 0.00 | 0.00 | 0.00 | 67 | 1019.7 |
| 20260505102004 | 60 | 227 | 0.0 | 1.0 | 0.00 | 0.00 | 0.00 | 66 | 1019.6 |
| 20260505101004 | 60 | 234 | 0.0 | 1.0 | 0.00 | 0.00 | 0.00 | 67 | 1019.5 |
| 20260505100004 | 60 | 106 | 0.0 | 2.0 | 0.00 | 0.00 | 0.00 | 66 | 1019.7 |
| 20260505095004 | 60 | 236 | 0.0 | 2.0 | 0.00 | 0.00 | 0.00 | 65 | 1019.7 |
| 20260505093004 | 61 | 86 | 1.0 | 2.0 | 0.00 | 0.00 | 0.00 | 63 | 1019.6 |
| 20260505092005 | 62 | 100 | 0.0 | 5.0 | 0.00 | 0.00 | 0.00 | 60 | 1019.6 |
| 20260505090004 | 62 | 121 | 2.0 | 5.0 | 0.00 | 0.00 | 0.00 | 60 | 1019.9 |
| 20260505085003 | 62 | 142 | 2.0 | 3.0 | 0.00 | 0.00 | 0.00 | 63 | 1019.7 |
| 20260505084004 | 62 | 238 | 2.0 | 3.0 | 0.00 | 0.00 | 0.00 | 63 | 1019.7 |
| 20260505082004 | 63 | 98 | 1.0 | 5.0 | 0.00 | 0.00 | 0.00 | 62 | 1019.8 |
| 20260505081004 | 63 | 93 | 3.0 | 6.0 | 0.00 | 0.00 | 0.00 | 62 | 1019.8 |
| 20260505074004 | 64 | 190 | 1.0 | 1.0 | 0.00 | 0.00 | 0.00 | 57 | 1020.1 |
| 20260505073004 | 64 | 356 | 1.0 | 3.0 | 0.00 | 0.00 | 0.00 | 57 | 1020.2 |
| 20260505072005 | 64 | 105 | 1.0 | 2.0 | 0.00 | 0.00 | 0.00 | 56 | 1020.2 |
| 20260505071013 | 64 | 254 | 0.0 | 2.0 | 0.00 | 0.00 | 0.00 | 56 | 1020.2 |
| 20260505070006 | 65 | 331 | 1.0 | 5.0 | 0.00 | 0.00 | 0.00 | 55 | 1020.5 |
| 20260505065004 | 66 | 327 | 1.0 | 6.0 | 0.00 | 0.00 | 0.00 | 53 | 1020.5 |
| 20260505064004 | 68 | 29 | 1.0 | 5.0 | 0.00 | 0.00 | 0.00 | 53 | 1020.6 |
| 20260505063004 | 69 | 153 | 2.0 | 6.0 | 0.00 | 0.00 | 0.00 | 47 | 1020.6 |
| 20260505062004 | 69 | 329 | 3.0 | 7.0 | 0.00 | 0.00 | 0.00 | 46 | 1020.7 |
| 20260505055004 | 69 | 117 | 1.0 | 10.0 | 0.00 | 0.00 | 0.00 | 48 | 1020.6 |
| 20260505054004 | 69 | 29 | 1.0 | 13.0 | 0.00 | 0.00 | 0.00 | 47 | 1020.5 |
| 20260505053004 | 69 | 167 | 3.0 | 14.0 | 0.00 | 0.00 | 0.00 | 47 | 1020.5 |
| 20260505052004 | 69 | 152 | 5.0 | 23.0 | 0.00 | 0.00 | 0.00 | 44 | 1020.4 |
| 20260505041004 | 69 | 163 | 6.0 | 26.0 | 0.00 | 0.00 | 0.00 | 52 | 1019.6 |
| 20260505034004 | 71 | 152 | 12.0 | 23.0 | 0.00 | 0.00 | 0.00 | 57 | 1019.6 |
| 20260505033004 | 71 | 129 | 9.0 | 21.0 | 0.00 | 0.00 | 0.00 | 58 | 1019.5 |
| 20260505032004 | 72 | 155 | 6.0 | 21.0 | 0.00 | 0.00 | 0.00 | 59 | 1019.1 |
| 20260505031004 | 72 | 151 | 14.0 | 21.0 | 0.00 | 0.00 | 0.00 | 61 | 1019.2 |
| 20260505025004 | 74 | 142 | 10.0 | 18.0 | 0.00 | 0.00 | 0.00 | 59 | 1019.0 |
| 20260505024004 | 74 | 159 | 7.0 | 18.0 | 0.00 | 0.00 | 0.00 | 58 | 1018.7 |
| 20260505023004 | 74 | 167 | 5.0 | 22.0 | 0.00 | 0.00 | 0.00 | 58 | 1018.6 |
| 20260505022005 | 75 | 164 | 10.0 | 22.0 | 0.00 | 0.00 | 0.00 | 57 | 1018.4 |
| 20260505021004 | 74 | 170 | 6.0 | 22.0 | 0.00 | 0.00 | 0.00 | 57 | 1018.5 |
| 20260505015004 | 75 | 167 | 9.0 | 24.0 | 0.00 | 0.00 | 0.00 | 56 | 1018.2 |
| 20260505014004 | 75 | 132 | 12.0 | 24.0 | 0.00 | 0.00 | 0.00 | 56 | 1018.1 |
| 20260505013004 | 75 | 164 | 7.0 | 21.0 | 0.00 | 0.00 | 0.00 | 54 | 1018.0 |
| 20260505012004 | 75 | 148 | 6.0 | 21.0 | 0.00 | 0.00 | 0.00 | 53 | 1018.1 |
| 20260505011004 | 76 | 145 | 6.0 | 22.0 | 0.00 | 0.00 | 0.00 | 53 | 1017.9 |
| 20260505010004 | 77 | 166 | 9.0 | 23.0 | 0.00 | 0.00 | 0.00 | 51 | 1017.7 |
| 20260505003004 | 79 | 127 | 10.0 | 18.0 | 0.00 | 0.00 | 0.00 | 47 | 1017.6 |
| 20260505002005 | 80 | 143 | 9.0 | 24.0 | 0.00 | 0.00 | 0.00 | 46 | 1017.5 |
| 20260505001004 | 80 | 172 | 6.0 | 24.0 | 0.00 | 0.00 | 0.00 | 46 | 1017.5 |
| 20260505000004 | 81 | 180 | 10.0 | 23.0 | 0.00 | 0.00 | 0.00 | 46 | 1017.5 |
| 20260504235005 | 81 | 181 | 6.0 | 24.0 | 0.00 | 0.00 | 0.00 | 45 | 1017.4 |
| 20260504234005 | 82 | 158 | 6.0 | 22.0 | 0.00 | 0.00 | 0.00 | 45 | 1017.4 |
| 20260504233006 | 83 | 189 | 5.0 | 20.0 | 0.00 | 0.00 | 0.00 | 44 | 1017.3 |
| 20260504232057 | 84 | 149 | 8.0 | 18.0 | 0.00 | 0.00 | 0.00 | 44 | 1017.3 |
| 20260504231005 | 84 | 225 | 6.0 | 18.0 | 0.00 | 0.00 | 0.00 | 43 | 1017.6 |
| 20260504230005 | 85 | 214 | 3.0 | 20.0 | 0.00 | 0.00 | 0.00 | 43 | 1017.5 |
| 20260504225004 | 85 | 158 | 7.0 | 25.0 | 0.00 | 0.00 | 0.00 | 43 | 1017.8 |